Regional Weather Roundup
Issued by NWS

Home | Current Version | Previous Version | Graphics & Text | Print | Product List | Glossary On
Versions: 1 2 3 4 5 6 7 8 9 10 11 12 13 14 15 16 17 18 19 20 21 22 23 24 25 26 27
000
ASUS45 KBOU 190107
RWRCO

WEATHER ROUNDUP FOR COLORADO
NATIONAL WEATHER SERVICE DENVER/BOULDER CO
600 PM MST WED JAN 18 2017

NOTE: "FAIR" INDICATES FEW OR NO CLOUDS BELOW 12000 FEET WITH NO
SIGNIFICANT WEATHER AND/OR OBSTRUCTIONS TO VISIBILITY.

COZ001>005-013-030-031-190200-
...NORTHWEST COLORADO...

CITY           SKY/WX    TMP DP  RH WIND       PRES   REMARKS
CRAIG          FAIR      12   7  80 CALM      29.96F
HAYDEN         FAIR      23  12  63 E8        29.95F WCI  14
MEEKER         FAIR      24  19  81 CALM      29.94F
MOUNT WERNER   NOT AVBL
STEAMBOAT SPGS FAIR      19  13  78 CALM      29.95F
WALDEN           N/A      3  -2  78 CALM      29.95F
$$

COZ006>008-011-190200-
...WEST CENTRAL VALLEYS...

CITY           SKY/WX    TMP DP  RH WIND       PRES   REMARKS
GRAND JUNCTION FAIR      36  30  79 NW5       29.98S
MONTROSE       FAIR      39  27  62 CALM      29.99S
EAGLE          CLEAR     28  19  69 CALM      30.00S
RIFLE          FAIR      33  25  72 SE6       29.97F WCI  28
DELTA          FAIR      42  32  67 CALM      29.98F
NUCLA          FAIR      37  27  65 E3        30.03R
$$

COZ017>023-064>068-190200-
...SOUTHWEST COLORADO...

CITY           SKY/WX    TMP DP  RH WIND       PRES   REMARKS
DURANGO        FAIR      35  26  69 SW6       29.99S WCI  30
CORTEZ         FAIR      36  29  75 NW5       30.01S
PAGOSA SPRINGS CLOUDY    33  29  85 SW5       30.00S WCI  28
TELLURIDE      NOT AVBL
WOLF CREEK PAS CLOUDY    16  16 100 SW10G17   30.03S WCI   3
$$

COZ009-010-012-014-032>034-037-058>063-190200-
...CENTRAL COLORADO...

CITY           SKY/WX    TMP DP  RH WIND       PRES   REMARKS
ASPEN          FAIR      21  13  71 S8        29.96S WCI  11
BUENA VISTA    FAIR      11   6  77 W6        29.90R WCI   2
COPPER MTN     FAIR      25  16  68 MISG      29.98S
BERTHOUD PASS  NOT AVBL
COTTONWOOD PAS FAIR      32  18  55 N3        29.92S
GUNNISON       FAIR      11   9  92 CALM      30.02R
KREMMLING      FAIR      19  14  79 CALM      30.01S
LEADVILLE      FAIR      23  11  60 NW8       29.92S WCI  14
MONARCH PASS   FAIR      12  10  92 MISG      30.06F
SALIDA         FAIR      30  19  61 SW6       29.96S WCI  24
SUNLIGHT       FAIR      19  16  86 SW7       30.02S WCI  10
WILKERSON PASS FAIR      32  -4  21 CALM      29.95F
$$

COZ069>075-190200-
...SAN LUIS VALLEY/SANGRE DE CRISTO MOUNTAINS...

CITY           SKY/WX    TMP DP  RH WIND       PRES   REMARKS
ALAMOSA        CLOUDY    26  23  88 SW3       29.97F
LA VETA PASS   CLOUDY    19  18  93 NE28G33   29.91S FOG     WCI   1
SAGUACHE       FAIR      21  19  93 E8        29.98S WCI  12
$$

COZ035-036-038>040-190200-
...NORTHERN COLORADO FRONT RANGE...

CITY           SKY/WX    TMP DP  RH WIND       PRES   REMARKS
DENVER INTL AP FAIR      41  21  44 SE7       29.75S
DMNS CITY PARK   N/A     42  18  38 N1G7      29.74F
AURORA         PTCLDY    43  17  35 CALM      29.76S
FRONT RANGE AP PTCLDY    41  23  48 SE5       29.76F
ERIE MUNI ARPT FAIR      31  23  73 SW3       29.75F
BOULDER MUN AP FAIR      41  23  48 SW5       29.75F
CENTENNIAL     FAIR      42  13  30 W3        29.76F
BROOMFIELD     CLEAR     46  16  29 NW6       29.77F
FORT COLLINS   FAIR      43  18  36 S3        29.75F
LONGMONT       FAIR      33  24  67 W7        29.78S WCI  27
$$

COZ041-046-047-076>085-087-088-190200-
...PIKES PEAK/PALMER DIVIDE AND SOUTHERN FOOTHILLS...

CITY           SKY/WX    TMP DP  RH WIND       PRES   REMARKS
COLO. SPRINGS  MOCLDY    37  21  52 CALM      29.80F
A. F. ACADEMY  FAIR      36  16  44 N7        29.79S
SCHRIEVER AFB  NOT AVBL
ELLICOTT       FAIR     N/A N/A N/A CALM      29.77F
FALCON         FAIR      32  20  61 W5        29.81S WCI  27
FORT CARSON    NOT AVBL
LIMON          FAIR      24  19  81 CALM      29.77F
MONUMENT HILL  FAIR      32  18  55 SW10      29.80F WCI  24
TRINIDAD       FAIR      31  22  69 W6        29.79F WCI  25
$$

COZ042>045-048>051-090-091-190200-
...NORTHEAST COLORADO...

CITY           SKY/WX    TMP DP  RH WIND       PRES   REMARKS
GREELEY ARPT   FAIR      35  27  72 NE3       29.75F
AKRON          FAIR      36  21  54 S9        29.75F
BURLINGTON     FAIR      35  32  88 SW8       29.78F WCI  29
WRAY           NOT AVBL
STERLING       FAIR      34  28  80 W7        29.75S WCI  28
HOLYOKE        FAIR      34  30  86 S8        29.76F WCI  27
FORT MORGAN    FAIR      38  25  60 NE3       29.76S
$$

COZ086-089-092>099-190200-
...SOUTHEAST COLORADO...

CITY           SKY/WX    TMP DP  RH WIND       PRES   REMARKS
PUEBLO         FAIR      36  31  82 NE3       29.76F
LA JUNTA       FAIR      31  25  78 S8        29.75F WCI  23
LAMAR          FAIR      30  27  88 E3        29.77F
SPRINGFIELD      N/A     37  32  82 CALM      29.78S
$$




USA.gov is the U.S. government's official web portal to all federal, state and local government web resources and services.